2025-292A

Last updated on Mon Dec 15 2025 00:02:13 GMT+0000 (Coordinated Universal Time)

1 66993U 25292A 25348.80218404 .00004173 00000+0 30181-3 0 9992 2 66993 97.6536 61.3334 0013805 265.2483 94.7166 15.04510490 707
UTC large
Height (km)
Speed (km/s)
/
Latitude / Longitude
Inclination (degrees)
Orbital Period (minutes)
Azimuth
Elevation
Range (km)
Doppler Factor

Next 0 passes for location: London (51.5072 / 0.1276)

Sorry there are no passes over London.